Time,TemperatureF,DewpointF,PressureIn,WindDirection,WindDirectionDegrees,WindSpeedMPH,WindSpeedGustMPH,Humidity,HourlyPrecipIn,Conditions,Clouds,dailyrainin,SoftwareType,DateUTC
2013-03-22 00:00:00,23.0,10.8,30.01,WSW,240,0.0,0.0,59,0.00,,,0.00,VWS V14.01,2013-03-22 04:00:00,
2013-03-22 00:02:00,23.2,11.0,30.01,WSW,240,0.0,0.0,59,0.00,,,0.00,VWS V14.01,2013-03-22 04:02:00,
2013-03-22 00:04:00,23.2,11.0,30.01,WSW,240,0.0,0.0,59,0.00,,,0.00,VWS V14.01,2013-03-22 04:04:00,
2013-03-22 00:08:00,23.2,11.0,30.01,WSW,240,0.0,0.0,59,0.00,,,0.00,VWS V14.01,2013-03-22 04:08:00,
2013-03-22 00:13:00,23.2,11.0,30.01,WSW,240,0.0,0.0,59,0.00,,,0.00,VWS V14.01,2013-03-22 04:13:00,
2013-03-22 00:19:00,23.2,11.0,30.01,WSW,240,0.0,0.0,59,0.00,,,0.00,VWS V14.01,2013-03-22 04:19:00,
2013-03-22 00:27:00,23.4,11.2,30.01,WSW,240,0.0,0.0,59,0.00,,,0.00,VWS V14.01,2013-03-22 04:27:00,
2013-03-22 00:32:00,23.5,11.3,30.01,WSW,240,0.0,0.0,59,0.00,,,0.00,VWS V14.01,2013-03-22 04:32:00,
2013-03-22 00:37:00,23.5,11.3,30.01,WSW,240,0.0,0.0,59,0.00,,,0.00,VWS V14.01,2013-03-22 04:37:00,
2013-03-22 00:43:00,23.5,11.3,30.01,WSW,240,0.0,0.0,59,0.00,,,0.00,VWS V14.01,2013-03-22 04:43:00,
2013-03-22 00:48:00,23.5,11.3,30.01,WSW,240,0.0,0.0,59,0.00,,,0.00,VWS V14.01,2013-03-22 04:48:00,
2013-03-22 00:54:00,23.5,11.7,30.01,WSW,240,0.0,0.0,60,0.00,,,0.00,VWS V14.01,2013-03-22 04:54:00,
2013-03-22 00:59:00,23.5,11.7,30.01,WSW,240,0.0,0.0,60,0.00,,,0.00,VWS V14.01,2013-03-22 04:59:00,
2013-03-22 01:04:00,23.7,11.9,30.01,WSW,240,0.0,0.0,60,0.00,,,0.00,VWS V14.01,2013-03-22 05:04:00,
2013-03-22 01:10:00,23.7,11.9,30.01,WSW,240,0.0,0.0,60,0.00,,,0.00,VWS V14.01,2013-03-22 05:10:00,
2013-03-22 01:16:00,23.5,11.7,30.01,WSW,240,0.0,0.0,60,0.00,,,0.00,VWS V14.01,2013-03-22 05:16:00,
2013-03-22 01:21:00,23.5,11.7,30.01,WSW,240,0.0,0.0,60,0.00,,,0.00,VWS V14.01,2013-03-22 05:21:00,
2013-03-22 01:27:00,23.7,11.9,30.01,WSW,240,0.0,0.0,60,0.00,,,0.00,VWS V14.01,2013-03-22 05:27:00,
2013-03-22 01:32:00,23.7,11.9,30.01,WSW,240,0.0,0.0,60,0.00,,,0.00,VWS V14.01,2013-03-22 05:32:00,
2013-03-22 01:37:00,23.7,11.9,30.01,WSW,240,0.0,0.0,60,0.00,,,0.00,VWS V14.01,2013-03-22 05:37:00,
2013-03-22 01:42:00,23.7,11.9,30.01,WSW,240,0.0,0.0,60,0.00,,,0.00,VWS V14.01,2013-03-22 05:42:00,
2013-03-22 01:48:00,23.7,11.9,30.01,WSW,240,0.0,0.0,60,0.00,,,0.00,VWS V14.01,2013-03-22 05:48:00,
2013-03-22 01:54:00,23.5,11.7,30.01,WSW,240,0.0,0.0,60,0.00,,,0.00,VWS V14.01,2013-03-22 05:54:00,
2013-03-22 02:00:00,23.7,11.9,30.01,WSW,240,0.0,0.0,60,0.00,,,0.00,VWS V14.01,2013-03-22 06:00:00,
2013-03-22 02:06:00,23.5,12.1,30.01,WSW,240,0.0,0.0,61,0.00,,,0.00,VWS V14.01,2013-03-22 06:06:00,
2013-03-22 02:12:00,23.5,12.1,30.01,WSW,240,0.0,0.0,61,0.00,,,0.00,VWS V14.01,2013-03-22 06:12:00,
2013-03-22 02:17:00,23.5,12.1,30.01,WSW,240,0.0,0.0,61,0.00,,,0.00,VWS V14.01,2013-03-22 06:17:00,
2013-03-22 02:23:00,23.5,12.1,30.01,WSW,240,0.0,0.0,61,0.00,,,0.00,VWS V14.01,2013-03-22 06:23:00,
2013-03-22 02:29:00,23.5,12.1,30.01,WSW,240,0.0,0.0,61,0.00,,,0.00,VWS V14.01,2013-03-22 06:29:00,
2013-03-22 02:36:00,23.7,12.2,30.01,WSW,240,0.0,0.0,61,0.00,,,0.00,VWS V14.01,2013-03-22 06:36:00,
2013-03-22 02:42:00,23.7,12.2,30.01,WSW,240,0.0,0.0,61,0.00,,,0.00,VWS V14.01,2013-03-22 06:42:00,
2013-03-22 02:48:00,23.7,12.2,30.01,WSW,240,0.0,0.0,61,0.00,,,0.00,VWS V14.01,2013-03-22 06:48:00,
2013-03-22 02:53:00,23.7,12.6,30.01,WSW,240,0.0,0.0,62,0.00,,,0.00,VWS V14.01,2013-03-22 06:53:00,
2013-03-22 02:58:00,23.5,12.4,30.01,WSW,240,0.0,0.0,62,0.00,,,0.00,VWS V14.01,2013-03-22 06:58:00,
2013-03-22 03:03:00,23.5,12.4,30.01,WSW,240,0.0,0.0,62,0.00,,,0.00,VWS V14.01,2013-03-22 07:03:00,
2013-03-22 03:08:00,23.5,12.4,30.01,WSW,240,0.0,0.0,62,0.00,,,0.00,VWS V14.01,2013-03-22 07:08:00,
2013-03-22 03:13:00,23.5,12.4,30.01,WSW,240,0.0,0.0,62,0.00,,,0.00,VWS V14.01,2013-03-22 07:13:00,
2013-03-22 03:18:00,23.5,12.4,30.01,WSW,240,0.0,0.0,62,0.00,,,0.00,VWS V14.01,2013-03-22 07:18:00,
2013-03-22 03:24:00,23.5,12.4,30.01,WSW,240,0.0,0.0,62,0.00,,,0.00,VWS V14.01,2013-03-22 07:24:00,
2013-03-22 03:31:00,23.4,12.3,30.01,WSW,240,0.0,0.0,62,0.00,,,0.00,VWS V14.01,2013-03-22 07:31:00,
2013-03-22 03:37:00,23.2,12.1,30.01,WSW,240,0.0,0.0,62,0.00,,,0.00,VWS V14.01,2013-03-22 07:37:00,
2013-03-22 03:42:00,23.0,11.9,30.01,WSW,240,0.0,0.0,62,0.00,,,0.00,VWS V14.01,2013-03-22 07:42:00,
2013-03-22 03:48:00,23.0,11.9,30.01,WSW,240,0.0,0.0,62,0.00,,,0.00,VWS V14.01,2013-03-22 07:48:00,
2013-03-22 03:53:00,22.8,11.8,30.01,WSW,240,0.0,0.0,62,0.00,,,0.00,VWS V14.01,2013-03-22 07:53:00,
2013-03-22 03:59:00,22.8,12.1,30.01,WSW,240,0.0,0.0,63,0.00,,,0.00,VWS V14.01,2013-03-22 07:59:00,
2013-03-22 04:04:00,22.8,12.1,30.01,WSW,240,0.0,0.0,63,0.00,,,0.00,VWS V14.01,2013-03-22 08:04:00,
2013-03-22 04:09:00,22.6,11.6,30.01,WSW,240,0.0,0.0,62,0.00,,,0.00,VWS V14.01,2013-03-22 08:09:00,
2013-03-22 04:14:00,22.3,11.2,30.01,WSW,240,0.0,0.0,62,0.00,,,0.00,VWS V14.01,2013-03-22 08:14:00,
2013-03-22 04:22:00,21.9,10.9,30.01,WSW,245,0.0,0.0,62,0.00,,,0.00,VWS V14.01,2013-03-22 08:22:00,
2013-03-22 04:27:00,21.7,10.7,30.01,WSW,241,0.0,0.0,62,0.00,,,0.00,VWS V14.01,2013-03-22 08:27:00,
2013-03-22 04:32:00,21.6,10.6,30.01,WSW,237,4.0,6.7,62,0.00,,,0.00,VWS V14.01,2013-03-22 08:32:00,
2013-03-22 04:38:00,21.4,10.4,30.01,WSW,238,0.0,5.6,62,0.00,,,0.00,VWS V14.01,2013-03-22 08:38:00,
2013-03-22 04:44:00,21.2,10.2,30.01,WSW,238,0.0,0.0,62,0.00,,,0.00,VWS V14.01,2013-03-22 08:44:00,
2013-03-22 04:49:00,21.0,10.1,30.01,WSW,238,0.0,0.0,62,0.00,,,0.00,VWS V14.01,2013-03-22 08:49:00,
2013-03-22 04:56:00,20.7,9.7,30.01,WSW,238,0.0,0.0,62,0.00,,,0.00,VWS V14.01,2013-03-22 08:56:00,
2013-03-22 05:02:00,20.5,9.6,30.01,WSW,238,0.0,0.0,62,0.00,,,0.00,VWS V14.01,2013-03-22 09:02:00,
2013-03-22 05:07:00,20.3,9.4,30.01,WSW,238,0.0,0.0,62,0.00,,,0.00,VWS V14.01,2013-03-22 09:07:00,
2013-03-22 05:12:00,20.3,9.4,30.01,WSW,238,0.0,0.0,62,0.00,,,0.00,VWS V14.01,2013-03-22 09:12:00,
2013-03-22 05:17:00,20.3,9.7,30.01,WSW,238,0.0,0.0,63,0.00,,,0.00,VWS V14.01,2013-03-22 09:17:00,
2013-03-22 05:23:00,20.7,10.1,30.01,WSW,238,0.0,0.0,63,0.00,,,0.00,VWS V14.01,2013-03-22 09:23:00,
2013-03-22 05:29:00,20.8,10.2,30.01,WSW,238,0.0,0.0,63,0.00,,,0.00,VWS V14.01,2013-03-22 09:29:00,
2013-03-22 05:34:00,20.8,10.2,30.01,WSW,238,4.0,7.8,63,0.00,,,0.00,VWS V14.01,2013-03-22 09:34:00,
2013-03-22 05:40:00,20.8,10.2,30.01,WSW,238,4.0,6.7,63,0.00,,,0.00,VWS V14.01,2013-03-22 09:40:00,
2013-03-22 05:45:00,21.0,10.4,30.01,WSW,238,0.0,0.0,63,0.00,,,0.00,VWS V14.01,2013-03-22 09:45:00,
2013-03-22 05:52:00,20.8,10.2,30.01,WSW,238,0.0,0.0,63,0.00,,,0.00,VWS V14.01,2013-03-22 09:52:00,
2013-03-22 05:58:00,20.5,9.9,30.01,WSW,238,0.0,0.0,63,0.00,,,0.00,VWS V14.01,2013-03-22 09:58:00,
2013-03-22 06:03:00,20.5,9.9,30.01,WSW,238,0.0,0.0,63,0.00,,,0.00,VWS V14.01,2013-03-22 10:03:00,
2013-03-22 06:09:00,20.1,9.6,30.01,WSW,238,0.0,0.0,63,0.00,,,0.00,VWS V14.01,2013-03-22 10:09:00,
2013-03-22 06:14:00,19.9,9.4,30.01,WSW,238,0.0,0.0,63,0.00,,,0.00,VWS V14.01,2013-03-22 10:14:00,
2013-03-22 06:19:00,19.9,9.4,30.01,WSW,238,0.0,0.0,63,0.00,,,0.00,VWS V14.01,2013-03-22 10:19:00,
2013-03-22 06:24:00,20.1,9.6,30.01,WSW,238,0.0,0.0,63,0.00,,,0.00,VWS V14.01,2013-03-22 10:24:00,
2013-03-22 06:30:00,19.9,9.4,30.01,WSW,238,0.0,0.0,63,0.00,,,0.00,VWS V14.01,2013-03-22 10:30:00,
2013-03-22 06:36:00,19.8,9.2,30.01,WSW,238,0.0,0.0,63,0.00,,,0.00,VWS V14.01,2013-03-22 10:36:00,
2013-03-22 06:41:00,19.8,9.6,30.01,WSW,238,0.0,0.0,64,0.00,,,0.00,VWS V14.01,2013-03-22 10:41:00,
2013-03-22 06:47:00,19.6,9.4,30.01,WSW,238,0.0,0.0,64,0.00,,,0.00,VWS V14.01,2013-03-22 10:47:00,
2013-03-22 06:52:00,20.1,9.9,30.01,WSW,238,0.0,0.0,64,0.00,,,0.00,VWS V14.01,2013-03-22 10:52:00,
2013-03-22 06:57:00,20.3,10.4,30.04,SSW,207,0.0,0.0,65,0.00,,,0.00,VWS V14.01,2013-03-22 10:57:00,
2013-03-22 07:02:00,20.3,10.4,30.04,SSW,207,0.0,0.0,65,0.00,,,0.00,VWS V14.01,2013-03-22 11:02:00,
2013-03-22 07:08:00,19.9,9.7,30.04,SSW,207,0.0,0.0,64,0.00,,,0.00,VWS V14.01,2013-03-22 11:08:00,
2013-03-22 07:13:00,19.6,9.4,30.04,SSW,207,0.0,0.0,64,0.00,,,0.00,VWS V14.01,2013-03-22 11:13:00,
2013-03-22 07:18:00,19.6,9.4,30.04,SSW,207,0.0,0.0,64,0.00,,,0.00,VWS V14.01,2013-03-22 11:18:00,
2013-03-22 07:24:00,19.8,9.9,30.04,SSW,207,0.0,0.0,65,0.00,,,0.00,VWS V14.01,2013-03-22 11:24:00,
2013-03-22 07:29:00,19.8,9.9,30.04,SSW,207,0.0,0.0,65,0.00,,,0.00,VWS V14.01,2013-03-22 11:29:00,
2013-03-22 07:37:00,19.6,9.7,30.04,SSW,207,0.0,0.0,65,0.00,,,0.00,VWS V14.01,2013-03-22 11:37:00,
2013-03-22 07:43:00,19.2,9.4,30.04,SSW,207,0.0,0.0,65,0.00,,,0.00,VWS V14.01,2013-03-22 11:43:00,
2013-03-22 07:48:00,19.2,9.4,30.04,SSW,207,0.0,0.0,65,0.00,,,0.00,VWS V14.01,2013-03-22 11:48:00,
2013-03-22 07:53:00,19.0,9.2,30.04,SSW,207,0.0,0.0,65,0.00,,,0.00,VWS V14.01,2013-03-22 11:53:00,
2013-03-22 07:58:00,19.0,9.6,30.04,SSW,207,0.0,0.0,66,0.00,,,0.00,VWS V14.01,2013-03-22 11:58:00,
2013-03-22 08:04:00,19.0,9.6,30.04,SSW,207,0.0,0.0,66,0.00,,,0.00,VWS V14.01,2013-03-22 12:04:00,
2013-03-22 08:09:00,18.9,9.4,30.04,SSW,207,0.0,0.0,66,0.00,,,0.00,VWS V14.01,2013-03-22 12:09:00,
2013-03-22 08:14:00,18.9,9.4,30.04,SSW,207,0.0,0.0,66,0.00,,,0.00,VWS V14.01,2013-03-22 12:14:00,
2013-03-22 08:19:00,18.7,9.2,30.04,SSW,207,0.0,0.0,66,0.00,,,0.00,VWS V14.01,2013-03-22 12:19:00,
2013-03-22 08:25:00,18.7,9.2,30.04,SSW,207,0.0,0.0,66,0.00,,,0.00,VWS V14.01,2013-03-22 12:25:00,
2013-03-22 08:31:00,19.0,9.6,30.04,SSW,207,0.0,0.0,66,0.00,,,0.00,VWS V14.01,2013-03-22 12:31:00,
2013-03-22 08:36:00,19.4,9.9,30.04,SSW,207,0.0,0.0,66,0.00,,,0.00,VWS V14.01,2013-03-22 12:36:00,
2013-03-22 08:42:00,19.8,10.3,30.04,SSW,207,0.0,0.0,66,0.00,,,0.00,VWS V14.01,2013-03-22 12:42:00,
2013-03-22 08:48:00,20.1,10.9,30.04,SSW,207,0.0,0.0,67,0.00,,,0.00,VWS V14.01,2013-03-22 12:48:00,
2013-03-22 08:53:00,20.5,11.3,30.04,SSW,207,0.0,0.0,67,0.00,,,0.00,VWS V14.01,2013-03-22 12:53:00,
2013-03-22 08:59:00,20.8,11.6,30.04,SSW,207,0.0,0.0,67,0.00,,,0.00,VWS V14.01,2013-03-22 12:59:00,
2013-03-22 09:04:00,21.0,11.8,30.04,SSW,207,0.0,0.0,67,0.00,,,0.00,VWS V14.01,2013-03-22 13:04:00,
2013-03-22 09:10:00,21.6,12.3,30.01,SSW,207,0.0,0.0,67,0.00,,,0.00,VWS V14.01,2013-03-22 13:10:00,
2013-03-22 09:17:00,22.5,13.2,30.01,SSW,207,0.0,0.0,67,0.00,,,0.00,VWS V14.01,2013-03-22 13:17:00,
2013-03-22 09:22:00,23.4,14.0,30.01,SSW,207,0.0,0.0,67,0.00,,,0.00,VWS V14.01,2013-03-22 13:22:00,
2013-03-22 09:28:00,24.1,14.7,30.01,SSW,207,0.0,0.0,67,0.00,,,0.00,VWS V14.01,2013-03-22 13:28:00,
2013-03-22 09:34:00,24.6,15.2,30.01,WSW,240,4.7,7.8,67,0.00,,,0.00,VWS V14.01,2013-03-22 13:34:00,
2013-03-22 09:39:00,25.3,15.9,30.01,WSW,243,4.0,7.8,67,0.00,,,0.00,VWS V14.01,2013-03-22 13:39:00,
2013-03-22 09:44:00,26.1,16.6,30.01,WSW,242,4.7,7.8,67,0.00,,,0.00,VWS V14.01,2013-03-22 13:44:00,
2013-03-22 09:51:00,26.6,16.8,30.01,WSW,242,4.7,7.8,66,0.00,,,0.00,VWS V14.01,2013-03-22 13:51:00,
2013-03-22 09:57:00,27.0,17.1,30.01,WSW,242,4.0,6.7,66,0.00,,,0.00,VWS V14.01,2013-03-22 13:57:00,
2013-03-22 10:02:00,27.5,17.3,30.01,WSW,240,4.0,6.7,65,0.00,,,0.00,VWS V14.01,2013-03-22 14:02:00,
2013-03-22 10:07:00,28.0,17.8,30.01,WSW,249,4.0,6.7,65,0.00,,,0.00,VWS V14.01,2013-03-22 14:07:00,
2013-03-22 10:12:00,28.6,18.0,30.01,WSW,249,4.0,6.7,64,0.00,,,0.00,VWS V14.01,2013-03-22 14:12:00,
2013-03-22 10:18:00,28.9,18.3,30.01,West,272,4.7,8.9,64,0.00,,,0.00,VWS V14.01,2013-03-22 14:18:00,
2013-03-22 10:24:00,29.5,18.5,30.01,WNW,282,0.0,7.8,63,0.00,,,0.00,VWS V14.01,2013-03-22 14:24:00,
2013-03-22 10:30:00,30.0,18.6,30.01,West,270,4.7,8.9,62,0.00,,,0.00,VWS V14.01,2013-03-22 14:30:00,
2013-03-22 10:36:00,30.7,18.9,30.01,SW,235,6.0,10.1,61,0.00,,,0.00,VWS V14.01,2013-03-22 14:36:00,
2013-03-22 10:41:00,31.1,19.2,30.01,WSW,239,6.0,10.1,61,0.00,,,0.00,VWS V14.01,2013-03-22 14:41:00,
2013-03-22 10:46:00,31.5,19.2,30.01,WSW,238,4.0,6.7,60,0.00,,,0.00,VWS V14.01,2013-03-22 14:46:00,
2013-03-22 10:51:00,31.8,19.1,30.01,WSW,238,4.0,6.7,59,0.00,,,0.00,VWS V14.01,2013-03-22 14:51:00,
2013-03-22 10:56:00,32.2,19.5,30.04,WSW,238,4.0,6.7,59,0.00,,,0.00,VWS V14.01,2013-03-22 14:56:00,
2013-03-22 11:01:00,32.7,20.0,30.04,WSW,238,4.0,6.7,59,0.00,,,0.00,VWS V14.01,2013-03-22 15:01:00,
2013-03-22 11:06:00,33.3,20.5,30.04,West,267,4.7,7.8,59,0.00,,,0.00,VWS V14.01,2013-03-22 15:06:00,
2013-03-22 11:11:00,33.4,20.3,30.01,West,267,4.7,7.8,58,0.00,,,0.00,VWS V14.01,2013-03-22 15:11:00,
2013-03-22 11:17:00,33.8,20.2,30.01,West,267,4.7,7.8,57,0.00,,,0.00,VWS V14.01,2013-03-22 15:17:00,
2013-03-22 11:23:00,34.0,20.0,30.01,WSW,237,4.7,7.8,56,0.00,,,0.00,VWS V14.01,2013-03-22 15:23:00,
2013-03-22 11:28:00,35.2,21.1,30.04,WNW,283,4.7,8.9,56,0.00,,,0.00,VWS V14.01,2013-03-22 15:28:00,
2013-03-22 11:34:00,35.8,20.8,30.04,West,275,0.0,13.4,54,0.00,,,0.00,VWS V14.01,2013-03-22 15:34:00,
2013-03-22 11:39:00,36.9,21.8,30.04,NW,320,4.0,6.7,54,0.00,,,0.00,VWS V14.01,2013-03-22 15:39:00,
2013-03-22 11:44:00,36.9,21.3,30.04,West,276,4.7,7.8,53,0.00,,,0.00,VWS V14.01,2013-03-22 15:44:00,
2013-03-22 11:49:00,37.9,21.4,30.04,West,276,4.7,7.8,51,0.00,,,0.00,VWS V14.01,2013-03-22 15:49:00,
2013-03-22 11:54:00,37.9,21.0,30.04,WSW,251,4.7,7.8,50,0.00,,,0.00,VWS V14.01,2013-03-22 15:54:00,
2013-03-22 12:02:00,38.3,21.3,30.04,West,264,0.0,0.0,50,0.00,,,0.00,VWS V14.01,2013-03-22 16:02:00,
2013-03-22 12:07:00,39.7,22.2,30.04,West,264,0.0,0.0,49,0.00,,,0.00,VWS V14.01,2013-03-22 16:07:00,
2013-03-22 12:12:00,39.7,21.7,30.04,WSW,258,4.7,10.1,48,0.00,,,0.00,VWS V14.01,2013-03-22 16:12:00,
2013-03-22 12:18:00,38.1,20.2,30.04,WNW,287,4.7,7.8,48,0.00,,,0.00,VWS V14.01,2013-03-22 16:18:00,
2013-03-22 12:24:00,40.5,22.3,30.04,WNW,287,4.7,7.8,48,0.00,,,0.00,VWS V14.01,2013-03-22 16:24:00,
2013-03-22 12:29:00,41.0,22.3,30.04,West,276,0.0,7.8,47,0.00,,,0.00,VWS V14.01,2013-03-22 16:29:00,
2013-03-22 12:34:00,41.9,22.6,30.04,NW,310,3.4,5.6,46,0.00,,,0.00,VWS V14.01,2013-03-22 16:34:00,
2013-03-22 12:39:00,38.5,18.5,30.04,NW,307,6.0,11.2,44,0.00,,,0.00,VWS V14.01,2013-03-22 16:39:00,
2013-03-22 12:44:00,38.3,18.3,30.04,NW,307,6.0,10.1,44,0.00,,,0.00,VWS V14.01,2013-03-22 16:44:00,
2013-03-22 12:51:00,41.7,22.0,30.04,NW,307,6.0,10.1,45,0.00,,,0.00,VWS V14.01,2013-03-22 16:51:00,
2013-03-22 12:56:00,42.1,22.3,30.04,NW,307,6.0,10.1,45,0.00,,,0.00,VWS V14.01,2013-03-22 16:56:00,
2013-03-22 13:03:00,41.4,20.6,30.04,NW,307,6.0,10.1,43,0.00,,,0.00,VWS V14.01,2013-03-22 17:03:00,
2013-03-22 13:09:00,42.1,21.8,30.04,NW,307,6.0,10.1,44,0.00,,,0.00,VWS V14.01,2013-03-22 17:09:00,
2013-03-22 13:16:00,42.1,21.8,30.04,WSW,239,4.0,6.7,44,0.00,,,0.00,VWS V14.01,2013-03-22 17:16:00,
2013-03-22 13:22:00,42.8,22.4,30.04,NW,313,6.0,10.1,44,0.00,,,0.00,VWS V14.01,2013-03-22 17:22:00,
2013-03-22 13:27:00,42.3,21.9,30.04,WNW,285,8.1,13.4,44,0.00,,,0.00,VWS V14.01,2013-03-22 17:27:00,
2013-03-22 13:33:00,42.1,21.2,30.04,NW,309,4.7,8.9,43,0.00,,,0.00,VWS V14.01,2013-03-22 17:33:00,
2013-03-22 13:38:00,42.4,21.5,30.04,WSW,239,5.4,8.9,43,0.00,,,0.00,VWS V14.01,2013-03-22 17:38:00,
2013-03-22 13:43:00,41.5,20.7,30.04,WSW,237,6.0,13.4,43,0.00,,,0.00,VWS V14.01,2013-03-22 17:43:00,
2013-03-22 13:48:00,41.2,19.9,30.04,SW,234,4.0,13.4,42,0.00,,,0.00,VWS V14.01,2013-03-22 17:48:00,
2013-03-22 13:54:00,41.0,20.2,30.04,West,262,5.4,12.3,43,0.00,,,0.00,VWS V14.01,2013-03-22 17:54:00,
2013-03-22 14:00:00,41.7,20.9,30.04,SW,229,4.7,10.1,43,0.00,,,0.00,VWS V14.01,2013-03-22 18:00:00,
2013-03-22 14:06:00,41.7,20.9,30.04,WSW,238,4.7,7.8,43,0.00,,,0.00,VWS V14.01,2013-03-22 18:06:00,
2013-03-22 14:12:00,41.5,20.2,30.04,SW,228,4.7,7.8,42,0.00,,,0.00,VWS V14.01,2013-03-22 18:12:00,
2013-03-22 14:18:00,41.5,19.6,30.04,WSW,239,4.7,7.8,41,0.00,,,0.00,VWS V14.01,2013-03-22 18:18:00,
2013-03-22 14:24:00,42.1,20.7,30.04,WSW,239,4.7,7.8,42,0.00,,,0.00,VWS V14.01,2013-03-22 18:24:00,
2013-03-22 14:29:00,42.6,21.1,30.01,WSW,239,4.7,7.8,42,0.00,,,0.00,VWS V14.01,2013-03-22 18:29:00,
2013-03-22 14:36:00,43.0,20.9,30.01,WSW,239,4.7,7.8,41,0.00,,,0.00,VWS V14.01,2013-03-22 18:36:00,
2013-03-22 14:42:00,43.3,21.2,30.01,WSW,239,4.7,7.8,41,0.00,,,0.00,VWS V14.01,2013-03-22 18:42:00,
2013-03-22 14:47:00,43.5,21.4,30.01,WNW,283,8.1,13.4,41,0.00,,,0.00,VWS V14.01,2013-03-22 18:47:00,
2013-03-22 14:53:00,43.9,21.7,30.01,SW,225,5.4,8.9,41,0.00,,,0.00,VWS V14.01,2013-03-22 18:53:00,
2013-03-22 14:58:00,43.5,20.8,30.01,SW,225,5.4,8.9,40,0.00,,,0.00,VWS V14.01,2013-03-22 18:58:00,
2013-03-22 15:04:00,44.2,21.5,30.01,NW,323,4.7,7.8,40,0.00,,,0.00,VWS V14.01,2013-03-22 19:04:00,
2013-03-22 15:09:00,45.3,22.4,30.01,NW,323,4.7,7.8,40,0.00,,,0.00,VWS V14.01,2013-03-22 19:09:00,
2013-03-22 15:14:00,45.7,22.8,30.01,NW,323,4.7,7.8,40,0.00,,,0.00,VWS V14.01,2013-03-22 19:14:00,
2013-03-22 15:19:00,45.7,22.2,30.01,NW,313,5.4,8.9,39,0.00,,,0.00,VWS V14.01,2013-03-22 19:19:00,
2013-03-22 15:26:00,45.9,22.3,30.01,NW,313,6.0,10.1,39,0.00,,,0.00,VWS V14.01,2013-03-22 19:26:00,
2013-03-22 15:32:00,45.0,21.5,30.01,West,268,3.4,8.9,39,0.00,,,0.00,VWS V14.01,2013-03-22 19:32:00,
2013-03-22 15:38:00,42.1,19.5,30.01,WNW,286,6.0,10.1,40,0.00,,,0.00,VWS V14.01,2013-03-22 19:38:00,
2013-03-22 15:43:00,42.1,19.5,30.01,WNW,292,3.4,5.6,40,0.00,,,0.00,VWS V14.01,2013-03-22 19:43:00,
2013-03-22 15:49:00,42.4,19.8,30.01,WNW,289,3.4,12.3,40,0.00,,,0.00,VWS V14.01,2013-03-22 19:49:00,
2013-03-22 15:54:00,42.6,20.6,30.01,WSW,244,3.4,11.2,41,0.00,,,0.00,VWS V14.01,2013-03-22 19:54:00,
2013-03-22 16:00:00,42.6,20.0,30.01,NW,310,3.4,14.5,40,0.00,,,0.00,VWS V14.01,2013-03-22 20:00:00,
2013-03-22 16:06:00,43.2,21.1,30.01,WSW,254,5.4,10.1,41,0.00,,,0.00,VWS V14.01,2013-03-22 20:06:00,
2013-03-22 16:12:00,43.3,20.6,30.01,North,0,4.7,7.8,40,0.00,,,0.00,VWS V14.01,2013-03-22 20:12:00,
2013-03-22 16:18:00,43.7,21.6,30.01,NW,309,3.4,13.4,41,0.00,,,0.00,VWS V14.01,2013-03-22 20:18:00,
2013-03-22 16:23:00,42.3,19.7,30.01,WNW,284,6.0,13.4,40,0.00,,,0.00,VWS V14.01,2013-03-22 20:23:00,
2013-03-22 16:28:00,42.3,19.7,30.01,NW,320,5.4,8.9,40,0.00,,,0.00,VWS V14.01,2013-03-22 20:28:00,
2013-03-22 16:34:00,42.3,20.3,30.01,NW,304,6.0,10.1,41,0.00,,,0.00,VWS V14.01,2013-03-22 20:34:00,
2013-03-22 16:39:00,42.3,20.3,30.01,NW,309,5.4,10.1,41,0.00,,,0.00,VWS V14.01,2013-03-22 20:39:00,
2013-03-22 16:46:00,41.0,18.5,30.01,West,277,4.7,10.1,40,0.00,,,0.00,VWS V14.01,2013-03-22 20:46:00,
2013-03-22 16:51:00,41.5,19.0,30.01,WNW,295,8.1,13.4,40,0.00,,,0.00,VWS V14.01,2013-03-22 20:51:00,
2013-03-22 16:57:00,41.4,19.5,30.01,WNW,294,8.1,13.4,41,0.00,,,0.00,VWS V14.01,2013-03-22 20:57:00,
2013-03-22 17:02:00,41.0,19.1,30.01,West,275,3.4,6.7,41,0.00,,,0.00,VWS V14.01,2013-03-22 21:02:00,
2013-03-22 17:08:00,41.5,19.6,30.01,WNW,298,6.0,10.1,41,0.00,,,0.00,VWS V14.01,2013-03-22 21:08:00,
2013-03-22 17:13:00,41.5,19.6,30.01,NNW,331,4.7,10.1,41,0.00,,,0.00,VWS V14.01,2013-03-22 21:13:00,
2013-03-22 17:19:00,41.2,18.7,30.01,WSW,241,4.0,8.9,40,0.00,,,0.00,VWS V14.01,2013-03-22 21:19:00,
2013-03-22 17:24:00,41.0,18.5,30.01,WNW,298,5.4,13.4,40,0.00,,,0.00,VWS V14.01,2013-03-22 21:24:00,
2013-03-22 17:29:00,41.2,19.3,30.01,West,278,3.4,10.1,41,0.00,,,0.00,VWS V14.01,2013-03-22 21:29:00,
2013-03-22 17:34:00,41.4,19.5,30.01,WNW,300,4.0,10.1,41,0.00,,,0.00,VWS V14.01,2013-03-22 21:34:00,
2013-03-22 17:41:00,41.2,19.3,30.01,West,272,4.7,8.9,41,0.00,,,0.00,VWS V14.01,2013-03-22 21:41:00,
2013-03-22 17:46:00,41.0,19.1,30.01,WNW,299,4.7,10.1,41,0.00,,,0.00,VWS V14.01,2013-03-22 21:46:00,
2013-03-22 17:51:00,40.8,19.0,30.01,WNW,298,4.0,7.8,41,0.00,,,0.00,VWS V14.01,2013-03-22 21:51:00,
2013-03-22 17:56:00,40.5,18.6,30.01,WNW,294,4.7,10.1,41,0.00,,,0.00,VWS V14.01,2013-03-22 21:56:00,
2013-03-22 18:02:00,40.3,18.5,30.01,WSW,246,4.0,13.4,41,0.00,,,0.00,VWS V14.01,2013-03-22 22:02:00,
2013-03-22 18:07:00,39.7,18.0,30.01,West,265,4.0,8.9,41,0.00,,,0.00,VWS V14.01,2013-03-22 22:07:00,
2013-03-22 18:13:00,39.6,17.8,30.01,WNW,293,4.0,7.8,41,0.00,,,0.00,VWS V14.01,2013-03-22 22:13:00,
2013-03-22 18:19:00,39.2,18.0,30.01,West,279,6.7,11.2,42,0.00,,,0.00,VWS V14.01,2013-03-22 22:19:00,
2013-03-22 18:24:00,38.1,17.1,30.01,West,274,6.0,10.1,42,0.00,,,0.00,VWS V14.01,2013-03-22 22:24:00,
2013-03-22 18:31:00,37.9,16.9,30.01,West,274,6.0,10.1,42,0.00,,,0.00,VWS V14.01,2013-03-22 22:31:00,
2013-03-22 18:36:00,37.6,17.1,30.01,WNW,290,4.0,6.7,43,0.00,,,0.00,VWS V14.01,2013-03-22 22:36:00,
2013-03-22 18:42:00,37.4,17.0,30.01,WNW,290,5.4,14.5,43,0.00,,,0.00,VWS V14.01,2013-03-22 22:42:00,
2013-03-22 18:47:00,36.9,16.5,30.01,WNW,283,4.7,8.9,43,0.00,,,0.00,VWS V14.01,2013-03-22 22:47:00,
2013-03-22 18:52:00,36.3,16.0,30.01,WNW,294,5.4,8.9,43,0.00,,,0.00,VWS V14.01,2013-03-22 22:52:00,
2013-03-22 18:58:00,35.8,15.5,30.01,NW,305,8.1,13.4,43,0.00,,,0.00,VWS V14.01,2013-03-22 22:58:00,
2013-03-22 19:04:00,35.2,15.0,30.01,WNW,294,6.0,13.4,43,0.00,,,0.00,VWS V14.01,2013-03-22 23:04:00,
2013-03-22 19:09:00,34.7,15.0,30.01,WNW,289,6.0,12.3,44,0.00,,,0.00,VWS V14.01,2013-03-22 23:09:00,
2013-03-22 19:14:00,34.3,14.7,30.01,WNW,291,5.4,8.9,44,0.00,,,0.00,VWS V14.01,2013-03-22 23:14:00,
2013-03-22 19:21:00,33.8,14.7,30.01,NW,320,4.0,8.9,45,0.00,,,0.00,VWS V14.01,2013-03-22 23:21:00,
2013-03-22 19:27:00,33.3,14.7,30.04,WNW,292,4.0,10.1,46,0.00,,,0.00,VWS V14.01,2013-03-22 23:27:00,
2013-03-22 19:32:00,32.9,14.4,30.04,NW,304,4.0,10.1,46,0.00,,,0.00,VWS V14.01,2013-03-22 23:32:00,
2013-03-22 19:37:00,32.5,14.6,30.04,WNW,292,4.7,10.1,47,0.00,,,0.00,VWS V14.01,2013-03-22 23:37:00,
2013-03-22 19:42:00,32.2,14.2,30.04,WNW,296,5.4,8.9,47,0.00,,,0.00,VWS V14.01,2013-03-22 23:42:00,
2013-03-22 19:47:00,31.8,14.4,30.04,NW,316,5.4,8.9,48,0.00,,,0.00,VWS V14.01,2013-03-22 23:47:00,
2013-03-22 19:52:00,31.3,14.4,30.04,WNW,303,3.4,7.8,49,0.00,,,0.00,VWS V14.01,2013-03-22 23:52:00,
2013-03-22 19:58:00,30.9,14.0,30.04,NW,306,3.4,10.1,49,0.00,,,0.00,VWS V14.01,2013-03-22 23:58:00,
2013-03-22 20:03:00,30.4,14.0,30.04,WNW,287,4.0,7.8,50,0.00,,,0.00,VWS V14.01,2013-03-23 00:03:00,
2013-03-22 20:08:00,30.2,14.3,30.04,WNW,301,4.0,7.8,51,0.00,,,0.00,VWS V14.01,2013-03-23 00:08:00,
2013-03-22 20:14:00,29.8,13.9,30.04,WNW,295,0.0,5.6,51,0.00,,,0.00,VWS V14.01,2013-03-23 00:14:00,
2013-03-22 20:19:00,29.7,14.2,30.04,NW,308,0.0,7.8,52,0.00,,,0.00,VWS V14.01,2013-03-23 00:19:00,
2013-03-22 20:26:00,29.5,14.0,30.04,NW,308,0.0,0.0,52,0.00,,,0.00,VWS V14.01,2013-03-23 00:26:00,
2013-03-22 20:32:00,29.1,14.1,30.04,NW,311,0.0,0.0,53,0.00,,,0.00,VWS V14.01,2013-03-23 00:32:00,
2013-03-22 20:37:00,28.9,14.0,30.04,NW,311,0.0,0.0,53,0.00,,,0.00,VWS V14.01,2013-03-23 00:37:00,
2013-03-22 20:43:00,28.6,14.1,30.04,NW,319,0.0,0.0,54,0.00,,,0.00,VWS V14.01,2013-03-23 00:43:00,
2013-03-22 20:49:00,28.6,14.1,30.04,NW,314,0.0,0.0,54,0.00,,,0.00,VWS V14.01,2013-03-23 00:49:00,
2013-03-22 20:56:00,28.4,14.3,30.04,NW,313,0.0,0.0,55,0.00,,,0.00,VWS V14.01,2013-03-23 00:56:00,
2013-03-22 21:02:00,28.2,14.1,30.04,NW,326,0.0,0.0,55,0.00,,,0.00,VWS V14.01,2013-03-23 01:02:00,
2013-03-22 21:07:00,28.0,14.4,30.04,NW,320,0.0,0.0,56,0.00,,,0.00,VWS V14.01,2013-03-23 01:07:00,
2013-03-22 21:12:00,27.9,14.2,30.04,NW,315,0.0,0.0,56,0.00,,,0.00,VWS V14.01,2013-03-23 01:12:00,
2013-03-22 21:18:00,27.9,14.6,30.04,NW,313,0.0,0.0,57,0.00,,,0.00,VWS V14.01,2013-03-23 01:18:00,
2013-03-22 21:23:00,27.7,14.4,30.04,NW,313,0.0,0.0,57,0.00,,,0.00,VWS V14.01,2013-03-23 01:23:00,
2013-03-22 21:29:00,27.3,14.1,30.04,NW,313,0.0,0.0,57,0.00,,,0.00,VWS V14.01,2013-03-23 01:29:00,
2013-03-22 21:35:00,27.0,13.8,30.04,NW,313,0.0,0.0,57,0.00,,,0.00,VWS V14.01,2013-03-23 01:35:00,
2013-03-22 21:41:00,26.8,13.6,30.04,NW,313,0.0,0.0,57,0.00,,,0.00,VWS V14.01,2013-03-23 01:41:00,
2013-03-22 21:47:00,26.6,13.8,30.04,NNW,343,0.0,0.0,58,0.00,,,0.00,VWS V14.01,2013-03-23 01:47:00,
2013-03-22 21:52:00,26.4,13.7,30.04,NNW,345,3.4,5.6,58,0.00,,,0.00,VWS V14.01,2013-03-23 01:52:00,
2013-03-22 21:58:00,26.2,13.5,30.04,North,350,4.0,6.7,58,0.00,,,0.00,VWS V14.01,2013-03-23 01:58:00,
2013-03-22 22:04:00,26.1,13.7,30.04,North,353,0.0,0.0,59,0.00,,,0.00,VWS V14.01,2013-03-23 02:04:00,
2013-03-22 22:12:00,25.9,13.5,30.04,North,353,0.0,0.0,59,0.00,,,0.00,VWS V14.01,2013-03-23 02:12:00,
2013-03-22 22:17:00,25.7,13.4,30.04,NNW,344,0.0,0.0,59,0.00,,,0.00,VWS V14.01,2013-03-23 02:17:00,
2013-03-22 22:22:00,25.5,13.2,30.04,NNW,344,0.0,0.0,59,0.00,,,0.00,VWS V14.01,2013-03-23 02:22:00,
2013-03-22 22:28:00,25.5,13.6,30.04,North,353,0.0,0.0,60,0.00,,,0.00,VWS V14.01,2013-03-23 02:28:00,
2013-03-22 22:34:00,25.3,13.4,30.04,NNW,342,0.0,0.0,60,0.00,,,0.00,VWS V14.01,2013-03-23 02:34:00,
2013-03-22 22:39:00,25.3,13.4,30.04,NNW,342,0.0,0.0,60,0.00,,,0.00,VWS V14.01,2013-03-23 02:39:00,
2013-03-22 22:46:00,25.2,13.2,30.04,NNW,342,0.0,0.0,60,0.00,,,0.00,VWS V14.01,2013-03-23 02:46:00,
2013-03-22 22:52:00,25.2,13.6,30.04,NNW,342,0.0,0.0,61,0.00,,,0.00,VWS V14.01,2013-03-23 02:52:00,
2013-03-22 22:57:00,25.2,13.6,30.04,NNW,342,0.0,0.0,61,0.00,,,0.00,VWS V14.01,2013-03-23 02:57:00,
2013-03-22 23:02:00,25.0,13.4,30.04,NNW,342,0.0,0.0,61,0.00,,,0.00,VWS V14.01,2013-03-23 03:02:00,
2013-03-22 23:08:00,24.8,13.6,30.04,NNW,342,0.0,0.0,62,0.00,,,0.00,VWS V14.01,2013-03-23 03:08:00,
2013-03-22 23:13:00,24.6,13.5,30.04,NNW,342,0.0,0.0,62,0.00,,,0.00,VWS V14.01,2013-03-23 03:13:00,
2013-03-22 23:18:00,24.4,13.3,30.04,NNW,342,0.0,0.0,62,0.00,,,0.00,VWS V14.01,2013-03-23 03:18:00,
2013-03-22 23:24:00,24.4,13.3,30.04,NNW,342,0.0,0.0,62,0.00,,,0.00,VWS V14.01,2013-03-23 03:24:00,
2013-03-22 23:29:00,24.4,13.3,30.07,NNW,342,0.0,0.0,62,0.00,,,0.00,VWS V14.01,2013-03-23 03:29:00,
2013-03-22 23:36:00,24.1,13.3,30.07,NNW,342,0.0,0.0,63,0.00,,,0.00,VWS V14.01,2013-03-23 03:36:00,
2013-03-22 23:41:00,24.3,13.5,30.07,NNW,342,0.0,0.0,63,0.00,,,0.00,VWS V14.01,2013-03-23 03:41:00,
2013-03-22 23:46:00,24.4,13.7,30.07,NNW,342,0.0,0.0,63,0.00,,,0.00,VWS V14.01,2013-03-23 03:46:00,
2013-03-22 23:52:00,24.3,13.9,30.07,NNW,342,0.0,0.0,64,0.00,,,0.00,VWS V14.01,2013-03-23 03:52:00,
2013-03-22 23:57:00,24.1,13.7,30.07,NNW,342,0.0,0.0,64,0.00,,,0.00,VWS V14.01,2013-03-23 03:57:00,